VOE3513 LEMG-LEBB

Flight info

Callsign VOE3513
Flight time 1h 5m
Altitude 34000
Route BLN N865 VTB N867 DGO
Aircraft A319/M-SDE3FGHIRWY/LB1

Departure

Time 2026-04-30 12:20
Airport Málaga-Costa del Sol Airport (LEMG)

Arrival

Time 2026-04-30 13:25
Airport Bilbao Airport (LEBB)
Time Latitude Longitude Altitude Speed Heading
2026-04-30 12:00 36.67580 -4.49297 44 ft 0 kts 116°
2026-04-30 12:09 36.67582 -4.49300 44 ft 2 kts 116°
2026-04-30 12:09 36.67588 -4.49317 44 ft 2 kts 116°
2026-04-30 12:09 36.67595 -4.49334 44 ft 2 kts 116°
2026-04-30 12:09 36.67600 -4.49346 44 ft 1 kts 118°
2026-04-30 12:10 36.67602 -4.49353 44 ft 0 kts 101°
2026-04-30 12:10 36.67603 -4.49357 45 ft 0 kts 161°
2026-04-30 12:10 36.67607 -4.49358 45 ft 0 kts 211°
2026-04-30 12:11 36.67593 -4.49371 45 ft 0 kts 221°
2026-04-30 12:11 36.67592 -4.49372 45 ft 0 kts 221°
2026-04-30 12:12 36.67592 -4.49373 45 ft 0 kts 222°
2026-04-30 12:13 36.67588 -4.49376 45 ft 1 kts 223°
2026-04-30 12:13 36.67577 -4.49389 45 ft 3 kts 223°
2026-04-30 12:13 36.67560 -4.49418 45 ft 5 kts 240°
2026-04-30 12:13 36.67524 -4.49465 44 ft 9 kts 221°
2026-04-30 12:14 36.67522 -4.49523 44 ft 6 kts 296°
2026-04-30 12:14 36.67515 -4.49571 45 ft 5 kts 226°
2026-04-30 12:14 36.67495 -4.49613 46 ft 6 kts 280°
2026-04-30 12:14 36.67521 -4.49658 47 ft 7 kts 312°
2026-04-30 12:15 36.67562 -4.49716 47 ft 10 kts 311°
2026-04-30 12:15 36.67622 -4.49800 47 ft 14 kts 312°
2026-04-30 12:15 36.67698 -4.49906 48 ft 17 kts 311°
2026-04-30 12:15 36.67786 -4.50028 48 ft 20 kts 312°
2026-04-30 12:16 36.67891 -4.50175 46 ft 24 kts 311°
2026-04-30 12:16 36.68004 -4.50335 47 ft 24 kts 311°
2026-04-30 12:16 36.68121 -4.50497 46 ft 25 kts 311°
2026-04-30 12:16 36.68239 -4.50663 46 ft 25 kts 312°
2026-04-30 12:17 36.68449 -4.50958 50 ft 15 kts 312°
2026-04-30 12:17 36.68504 -4.51069 51 ft 14 kts 267°
2026-04-30 12:17 36.68427 -4.51133 51 ft 14 kts 191°
2026-04-30 12:18 36.68343 -4.51105 53 ft 8 kts 130°
2026-04-30 12:18 36.68339 -4.51100 52 ft 0 kts 130°
2026-04-30 12:19 36.68337 -4.51097 52 ft 5 kts 131°
2026-04-30 12:19 36.68122 -4.50796 51 ft 85 kts 132°
2026-04-30 12:19 36.67571 -4.50024 53 ft 150 kts 132°
2026-04-30 12:20 36.66836 -4.48995 501 ft 165 kts 133°
2026-04-30 12:20 36.66070 -4.47938 1243 ft 167 kts 131°
2026-04-30 12:20 36.65320 -4.46886 2007 ft 167 kts 131°
2026-04-30 12:20 36.64518 -4.45753 2515 ft 182 kts 131°
2026-04-30 12:21 36.63653 -4.44534 3006 ft 199 kts 131°
2026-04-30 12:21 36.62675 -4.43159 3469 ft 222 kts 132°
2026-04-30 12:21 36.61636 -4.41705 4143 ft 234 kts 132°
2026-04-30 12:21 36.60570 -4.40178 5029 ft 237 kts 126°
2026-04-30 12:22 36.59815 -4.38385 5930 ft 239 kts 108°
2026-04-30 12:22 36.59425 -4.36403 6812 ft 241 kts 103°
2026-04-30 12:22 36.59097 -4.34350 7664 ft 245 kts 103°
2026-04-30 12:22 36.58769 -4.32271 8493 ft 249 kts 103°
2026-04-30 12:23 36.58440 -4.30168 9309 ft 253 kts 100°
2026-04-30 12:23 36.58591 -4.27996 10071 ft 265 kts 71°
2026-04-30 12:23 36.59592 -4.26011 10711 ft 279 kts 53°
2026-04-30 12:23 36.60836 -4.24138 11434 ft 287 kts 52°
2026-04-30 12:24 36.62123 -4.22227 12218 ft 292 kts 49°
2026-04-30 12:24 36.63720 -4.20635 12977 ft 299 kts 30°
2026-04-30 12:24 36.65654 -4.19619 13476 ft 314 kts 19°
2026-04-30 12:24 36.67809 -4.18777 13851 ft 332 kts 17°
2026-04-30 12:25 36.70079 -4.17920 14212 ft 350 kts 17°
2026-04-30 12:25 36.72445 -4.17011 14538 ft 368 kts 17°
2026-04-30 12:25 36.74977 -4.16043 14836 ft 385 kts 17°
2026-04-30 12:25 36.77598 -4.15034 15136 ft 402 kts 17°
2026-04-30 12:26 36.80278 -4.13993 15630 ft 410 kts 17°
2026-04-30 12:26 36.83031 -4.12919 16332 ft 413 kts 17°
2026-04-30 12:26 36.85739 -4.11862 16991 ft 415 kts 17°
2026-04-30 12:26 36.88533 -4.10774 17621 ft 419 kts 17°
2026-04-30 12:27 36.91321 -4.09685 18249 ft 422 kts 17°
2026-04-30 12:27 36.94135 -4.08586 18849 ft 425 kts 17°
2026-04-30 12:27 36.96957 -4.07481 19398 ft 429 kts 17°
2026-04-30 12:27 36.99823 -4.06358 19914 ft 433 kts 17°
2026-04-30 12:28 37.02683 -4.05236 20433 ft 437 kts 17°
2026-04-30 12:28 37.05609 -4.04087 20953 ft 440 kts 17°
2026-04-30 12:28 37.08505 -4.02949 21443 ft 444 kts 17°
2026-04-30 12:28 37.11474 -4.01782 21919 ft 447 kts 17°
2026-04-30 12:29 37.14446 -4.00612 22387 ft 451 kts 17°
2026-04-30 12:29 37.17450 -3.99429 22838 ft 454 kts 17°
2026-04-30 12:29 37.20478 -3.98259 23282 ft 457 kts 16°
2026-04-30 12:29 37.23535 -3.97117 23713 ft 461 kts 16°
2026-04-30 12:30 37.26614 -3.95976 24139 ft 464 kts 15°
2026-04-30 12:30 37.29717 -3.94825 24573 ft 467 kts 15°
2026-04-30 12:30 37.32846 -3.93660 24996 ft 470 kts 15°
2026-04-30 12:30 37.36000 -3.92483 25377 ft 473 kts 15°
2026-04-30 12:31 37.39126 -3.91313 25745 ft 476 kts 15°
2026-04-30 12:31 37.42343 -3.90108 26138 ft 479 kts 15°
2026-04-30 12:31 37.45512 -3.88919 26515 ft 481 kts 15°
2026-04-30 12:31 37.48748 -3.87703 26860 ft 484 kts 15°
2026-04-30 12:32 37.51977 -3.86489 27200 ft 487 kts 15°
2026-04-30 12:32 37.55226 -3.85268 27561 ft 489 kts 15°
2026-04-30 12:32 37.58501 -3.84034 27916 ft 491 kts 15°
2026-04-30 12:32 37.61736 -3.82814 28366 ft 490 kts 15°
2026-04-30 12:33 37.64989 -3.81585 28856 ft 488 kts 15°
2026-04-30 12:33 37.68225 -3.80361 29308 ft 487 kts 15°
2026-04-30 12:33 37.71474 -3.79132 29734 ft 486 kts 14°
2026-04-30 12:33 37.74728 -3.77901 30175 ft 486 kts 14°
2026-04-30 12:34 37.77929 -3.76691 30631 ft 484 kts 15°
2026-04-30 12:34 37.81141 -3.75476 31088 ft 483 kts 15°
2026-04-30 12:34 37.84340 -3.74263 31518 ft 482 kts 15°
2026-04-30 12:34 37.87559 -3.73040 31943 ft 481 kts 15°
2026-04-30 12:35 37.90755 -3.71826 32348 ft 480 kts 15°
2026-04-30 12:35 37.93932 -3.70617 32724 ft 480 kts 15°
2026-04-30 12:35 37.97123 -3.69401 33033 ft 481 kts 15°
2026-04-30 12:35 38.00329 -3.68176 33296 ft 483 kts 15°
2026-04-30 12:36 38.03578 -3.66934 33573 ft 484 kts 15°
2026-04-30 12:36 38.06771 -3.65714 33844 ft 485 kts 15°
2026-04-30 12:36 38.10014 -3.64482 34053 ft 486 kts 15°
2026-04-30 12:36 38.13310 -3.63403 34071 ft 487 kts 11°
2026-04-30 12:37 38.19964 -3.61997 34075 ft 485 kts
2026-04-30 12:37 38.26656 -3.61308 34082 ft 484 kts
2026-04-30 12:38 38.33414 -3.60689 34082 ft 484 kts
2026-04-30 12:38 38.40112 -3.60055 34086 ft 484 kts
2026-04-30 12:39 38.46833 -3.59408 34090 ft 484 kts
2026-04-30 12:39 38.53493 -3.58761 34097 ft 483 kts
2026-04-30 12:40 38.60186 -3.58109 34095 ft 483 kts
2026-04-30 12:40 38.66893 -3.57455 34098 ft 482 kts
2026-04-30 12:41 38.73573 -3.56803 34098 ft 482 kts
2026-04-30 12:41 38.80272 -3.56146 34095 ft 482 kts
2026-04-30 12:42 38.86952 -3.55491 34101 ft 483 kts
2026-04-30 12:42 38.93642 -3.54833 34098 ft 483 kts
2026-04-30 12:43 39.00292 -3.54177 34100 ft 482 kts
2026-04-30 12:43 39.06980 -3.53515 34100 ft 482 kts
2026-04-30 12:44 39.13660 -3.52849 34099 ft 481 kts
2026-04-30 12:44 39.20359 -3.52181 34099 ft 480 kts
2026-04-30 12:45 39.27014 -3.51517 34097 ft 481 kts
2026-04-30 12:45 39.33676 -3.50850 34096 ft 480 kts
2026-04-30 12:46 39.40345 -3.50182 34095 ft 481 kts
2026-04-30 12:46 39.46999 -3.49514 34097 ft 481 kts
2026-04-30 12:47 39.53650 -3.48843 34098 ft 480 kts
2026-04-30 12:47 39.60310 -3.48173 34097 ft 480 kts
2026-04-30 12:48 39.66964 -3.47507 34096 ft 480 kts
2026-04-30 12:48 39.73596 -3.46841 34094 ft 479 kts
2026-04-30 12:49 39.80225 -3.45979 34095 ft 480 kts
2026-04-30 12:49 39.86800 -3.44685 34095 ft 479 kts
2026-04-30 12:50 39.93364 -3.43353 34095 ft 479 kts
2026-04-30 12:50 39.99968 -3.42019 34096 ft 479 kts
2026-04-30 12:51 40.06508 -3.40704 34097 ft 479 kts
2026-04-30 12:51 40.13099 -3.39378 34094 ft 480 kts
2026-04-30 12:52 40.19705 -3.38044 34098 ft 480 kts
2026-04-30 12:52 40.26303 -3.36711 34102 ft 479 kts
2026-04-30 12:53 40.32852 -3.35385 34104 ft 478 kts
2026-04-30 12:53 40.39418 -3.34053 34105 ft 478 kts
2026-04-30 12:54 40.45995 -3.32716 34107 ft 478 kts
2026-04-30 12:54 40.52522 -3.31386 34109 ft 478 kts
2026-04-30 12:55 40.59097 -3.30046 34107 ft 478 kts
2026-04-30 12:55 40.65662 -3.28704 34107 ft 478 kts
2026-04-30 12:56 40.72235 -3.27355 34108 ft 478 kts
2026-04-30 12:56 40.78805 -3.26005 34110 ft 477 kts
2026-04-30 12:57 40.85320 -3.24666 34113 ft 477 kts
2026-04-30 12:57 40.91893 -3.23218 34112 ft 477 kts
2026-04-30 12:58 40.98402 -3.21746 34115 ft 477 kts
2026-04-30 12:58 41.04922 -3.20281 34118 ft 477 kts
2026-04-30 12:59 41.11483 -3.18805 34118 ft 476 kts
2026-04-30 12:59 41.17993 -3.17341 34123 ft 476 kts
2026-04-30 13:00 41.24515 -3.15872 34125 ft 476 kts
2026-04-30 13:00 41.31051 -3.14392 34127 ft 476 kts
2026-04-30 13:01 41.37555 -3.12917 34123 ft 475 kts
2026-04-30 13:01 41.44060 -3.11440 34118 ft 474 kts
2026-04-30 13:02 41.50520 -3.09969 34115 ft 474 kts
2026-04-30 13:02 41.57030 -3.08494 34115 ft 473 kts
2026-04-30 13:03 41.63513 -3.07023 34112 ft 474 kts
2026-04-30 13:03 41.70010 -3.05546 33723 ft 475 kts
2026-04-30 13:04 41.73248 -3.04808 33135 ft 472 kts
2026-04-30 13:04 41.76475 -3.04068 32489 ft 469 kts
2026-04-30 13:04 41.79673 -3.03334 31778 ft 468 kts
2026-04-30 13:04 41.82836 -3.02605 31034 ft 468 kts
2026-04-30 13:05 41.86041 -3.01867 30244 ft 468 kts
2026-04-30 13:05 41.89233 -3.01130 29454 ft 468 kts
2026-04-30 13:05 41.92442 -3.00391 28633 ft 468 kts
2026-04-30 13:06 41.98826 -2.98916 27073 ft 464 kts
2026-04-30 13:06 42.01990 -2.98180 26550 ft 456 kts
2026-04-30 13:06 42.05068 -2.97463 26019 ft 449 kts
2026-04-30 13:06 42.08121 -2.96753 25476 ft 444 kts
2026-04-30 13:07 42.11140 -2.96050 24932 ft 438 kts
2026-04-30 13:07 42.14134 -2.95354 24361 ft 433 kts
2026-04-30 13:07 42.17063 -2.94672 23812 ft 429 kts
2026-04-30 13:07 42.19980 -2.93992 23263 ft 424 kts
2026-04-30 13:08 42.22864 -2.93320 22726 ft 420 kts
2026-04-30 13:08 42.25752 -2.92645 22182 ft 416 kts
2026-04-30 13:08 42.28571 -2.91987 21645 ft 412 kts
2026-04-30 13:08 42.31378 -2.91330 21117 ft 408 kts
2026-04-30 13:09 42.34141 -2.90682 20599 ft 405 kts
2026-04-30 13:09 42.36913 -2.90032 20061 ft 402 kts
2026-04-30 13:09 42.39652 -2.89390 19538 ft 399 kts
2026-04-30 13:09 42.42364 -2.88732 19018 ft 397 kts
2026-04-30 13:10 42.45018 -2.87826 18509 ft 396 kts 14°
2026-04-30 13:10 42.47619 -2.86577 17943 ft 397 kts 19°
2026-04-30 13:10 42.50140 -2.85049 17399 ft 396 kts 22°
2026-04-30 13:10 42.52605 -2.83464 16895 ft 393 kts 23°
2026-04-30 13:11 42.55071 -2.81862 16388 ft 392 kts 23°
2026-04-30 13:11 42.57494 -2.80291 15856 ft 390 kts 23°
2026-04-30 13:11 42.59939 -2.78710 15342 ft 388 kts 23°
2026-04-30 13:11 42.62376 -2.77137 14823 ft 386 kts 23°
2026-04-30 13:12 42.64813 -2.75564 14298 ft 384 kts 23°
2026-04-30 13:12 42.67215 -2.74015 13775 ft 382 kts 24°
2026-04-30 13:12 42.69599 -2.72475 13254 ft 380 kts 24°
2026-04-30 13:13 42.74323 -2.69423 12216 ft 374 kts 24°
2026-04-30 13:13 42.76644 -2.67924 11703 ft 371 kts 24°
2026-04-30 13:13 42.81228 -2.64954 11004 ft 353 kts 25°
2026-04-30 13:14 42.83382 -2.63555 10803 ft 340 kts 25°
2026-04-30 13:14 42.85479 -2.62195 10604 ft 328 kts 25°
2026-04-30 13:14 42.89466 -2.59604 10274 ft 305 kts 25°
2026-04-30 13:15 42.91338 -2.58386 10148 ft 293 kts 25°
2026-04-30 13:15 42.94950 -2.56035 9550 ft 288 kts 25°
2026-04-30 13:15 42.96759 -2.54855 9207 ft 286 kts 25°
2026-04-30 13:16 42.98547 -2.53689 8876 ft 284 kts 25°
2026-04-30 13:16 43.00328 -2.52527 8537 ft 283 kts 25°
2026-04-30 13:16 43.02093 -2.51374 8188 ft 281 kts 25°
2026-04-30 13:17 43.05580 -2.49095 7538 ft 278 kts 25°
2026-04-30 13:17 43.07328 -2.47952 7201 ft 276 kts 25°
2026-04-30 13:17 43.10836 -2.46037 6517 ft 273 kts
2026-04-30 13:18 43.12686 -2.46422 6141 ft 271 kts 335°
2026-04-30 13:18 43.15109 -2.50025 5690 ft 255 kts 297°
2026-04-30 13:18 43.15929 -2.52148 5526 ft 246 kts 296°
2026-04-30 13:19 43.16683 -2.54193 5362 ft 238 kts 296°
2026-04-30 13:19 43.17409 -2.56192 5214 ft 231 kts 296°
2026-04-30 13:19 43.18109 -2.58132 5067 ft 223 kts 296°
2026-04-30 13:19 43.18783 -2.59997 4914 ft 217 kts 296°
2026-04-30 13:20 43.19441 -2.61820 4732 ft 211 kts 296°
2026-04-30 13:20 43.20091 -2.63614 4591 ft 204 kts 296°
2026-04-30 13:20 43.20707 -2.65314 4441 ft 198 kts 296°
2026-04-30 13:20 43.21307 -2.66965 4240 ft 191 kts 296°
2026-04-30 13:21 43.21897 -2.68587 3933 ft 190 kts 296°
2026-04-30 13:21 43.22479 -2.70187 3633 ft 188 kts 296°
2026-04-30 13:21 43.23057 -2.71774 3342 ft 186 kts 296°
2026-04-30 13:22 43.24197 -2.74900 2778 ft 181 kts 297°
2026-04-30 13:22 43.24762 -2.76446 2512 ft 178 kts 297°
2026-04-30 13:22 43.25823 -2.79355 2020 ft 161 kts 297°
2026-04-30 13:23 43.26304 -2.80670 1799 ft 150 kts 297°
2026-04-30 13:23 43.27190 -2.83092 1381 ft 138 kts 297°
2026-04-30 13:24 43.28049 -2.85437 983 ft 136 kts 297°
2026-04-30 13:24 43.28894 -2.87740 579 ft 134 kts 296°
2026-04-30 13:25 43.29733 -2.90014 186 ft 133 kts 294°
2026-04-30 13:25 43.30345 -2.91695 145 ft 45 kts 297°
2026-04-30 13:26 43.30633 -2.92013 156 ft 9 kts 71°
2026-04-30 13:26 43.30555 -2.91770 163 ft 20 kts 115°
2026-04-30 13:27 43.30414 -2.91387 159 ft 21 kts 116°
2026-04-30 13:28 43.30362 -2.91001 156 ft 9 kts 26°
2026-04-30 13:28 43.30406 -2.90863 158 ft 9 kts 86°
2026-04-30 13:28 43.30408 -2.90804 160 ft 2 kts 84°
2026-04-30 13:29 43.30420 -2.90774 162 ft 3 kts 34°
2026-04-30 13:29 43.30466 -2.90740 163 ft 0 kts 25°